Regional Weather Roundup
Issued by NWS Pendleton, OR

Home | Current Version | Previous Version | Text Only | Print | Product List | Glossary On
Versions: 1 2 3 4 5 6 7 8 9 10 11 12 13 14 15 16 17 18 19 20 21 22 23 24 25 26 27 28 29 30 31 32 33 34 35 36 37 38 39 40 41 42 43 44 45 46 47 48 49 50
452
ASUS46 KPDT 280825
RWRPDT
PENDLETON REGIONAL WEATHER ROUNDUP
NATIONAL WEATHER SERVICE PENDLETON OREGON
100 AM PDT TUE MAR 28 2017

NOTE: FAIR INDICATES FEW OR NO CLOUDS BELOW 12,000 FEET WITH NO
SIGNIFICANT WEATHER AND/OR OBSTRUCTIONS TO VISIBILITY.

# INDICATES UNOFFICIAL STATION AND DATA

WAZ520-280910-
EAST SLOPES OF WASHINGTON CASCADES

CITY            SKY/WX      TMP DP  RH  WIND    PRES   REMARKS
#CLE ELUM HS    N/A         39  34  82  CALM    30.14F
#CLE ELUM LAKE  N/A         36  33  89  N1      30.21F
#GLENWOOD       N/A         41  36  82  S7      30.27R
#NELSON 3SW     N/A         33  32  96  CALM    30.45F
#NILE           N/A         33  31  92  CALM    29.50R
#TEANAWAY 4NE   N/A         39  36  89  W1      N/A
#TROUT LAKE 1NE N/A         39  36  89  CALM    30.29S
#TROUT LAKE 1E  N/A         37  35  92  CALM    30.28R
$$

WAZ521-280910-
SIMCOE HIGHLANDS

CITY            SKY/WX      TMP DP  RH  WIND    PRES   REMARKS
#BICKLETON HS   N/A         39  32  76  W12     30.22S WCI 32
#CENTERVILLE 1SWN/A         40  35  82  S7      30.25R
#GOLDENDALE 1NE N/A         42  27  55  W7      N/A
#GOLDENDALE 4W  N/A         42  20  41  W16     30.28R WCI 34
#GOODNOE HILLS  N/A         43  35  73  W12     30.17R WCI 37
#LYLE 6NE       N/A         41  38  89  SW3     30.27R
#PITT 4SE       N/A         37  35  92  W6      30.32R
$$

WAZ026-280910-
KITTITAS VALLEY

CITY            SKY/WX      TMP DP  RH  WIND    PRES   REMARKS
ELLENSBURG AP   MOCLDY      42  34  73  NW10    30.20R
#ELLENSBURG CWU N/A         40  34  79  W2      30.16R
#ELLENSBURG 3NE N/A         40  35  82  N3      28.27R
#ELLENSBURG 1E  N/A         41  N/A N/A CALM    N/A
#ELLENSBURG 13S N/A         38  33  82  CALM    N/A
#KITTITAS 4N    N/A         38  33  82  W3      30.20R
#KITTITAS 3S    N/A         36  32  85  CALM    30.22R
#THORP 6N       N/A         39  34  82  W14     30.24R WCI 31
$$

WAZ027-280910-
YAKIMA VALLEY

CITY            SKY/WX      TMP DP  RH  WIND    PRES   REMARKS
SUNNYSIDE AP    MOCLDY      37  34  89  N6      30.24R
YAKIMA AIRPORT  CLOUDY      40  34  79  S3      30.22R
YAKIMA-VAGABOND MOCLEAR     37  31  79  CALM    30.19S
#DONALD 2NE     N/A         59   3  10  S14     28.91S
#GRANDVIEW      N/A         42  33  70  CALM    30.27R
#MOXEE 2E       N/A         41   0  17  CALM    30.15R
#NACHES 2SW     N/A         42  35  76  W2      30.05S
#TERRACE HTS    N/A         41  33  73  CALM    30.20R
#TOPPENISH      N/A         44  36  73  CALM    30.16R
#WEST VALLEY    N/A         41  33  73  CALM    30.22R
#W YAKIMA       N/A         43  34  70  CALM    30.23R
#WHITE SWAN 5E  N/A         46  36  68  CALM    30.23R
#WILEY CITY 3W  N/A         39  30  70  CALM    30.18R
$$

WAZ028-280910-
LOWER COLUMBIA BASIN...WASHINGTON

CITY            SKY/WX      TMP DP  RH  WIND    PRES   REMARKS
HANFORD         MOCLEAR     46  33  60  W10     30.18R
PASCO           MOCLDY      45  36  70  S10     30.25R
PROSSER AWOS    N/A         39  36  89  CALM    30.28R
RICHLAND AWOS   MOCLDY      46  38  73  S13     30.25R WCI 40
#BENTON CITY    N/A         41  35  79  CALM    30.16R
#CONNELL 5N     N/A         37  35  92  CALM    30.23R
#CONNELL 5NW    N/A         39  36  89  S6      30.17R
#ELTOPIA 6NW    N/A         41  36  82  CALM    29.19R
#KAHLOTUS       N/A         41  37  86  W18G26  30.23R WCI 32
#KENNEWICK 3S   N/A         42  37  82  S7      30.25R
#PATERSON       N/A         45  39  79  NW5     30.26R
#SAGEMOOR 2W    N/A         41  35  79  S1      30.11R
#TOUCHET 2S     N/A         46  37  71  SW18G29 30.23R WCI 39
#WEST PASCO     N/A         46  36  68  W1      30.28R
$$

WAZ029-280910-
FOOTHILLS OF THE BLUES...WASHINGTON

CITY            SKY/WX      TMP DP  RH  WIND    PRES   REMARKS
WALLA WALLA AP  MOCLDY      46  36  68  S13     30.26R WCI 40
#CLYDE 6NW      N/A         40  36  85  SW7     30.25R
#DAYTON SCHOOL  N/A         43  29  57  S6      30.27R
#LOWDEN 2SE     N/A         46  37  71  W5      30.24R
#PLEASANT VIEW 1N/A         38  35  89  S10     30.28R
#PRESCOTT       N/A         44  38  79  SW2     30.25R
#WHITMAN COLLEGEN/A         46  36  68  S6      30.33R
#WAITSBURG 5S   N/A         40  36  85  S7      30.37R
#WAITSBURG 8N   N/A         39  N/A N/A S8      30.17S
#WALLA WALLA 5E N/A         46  37  71  SW15    N/A    WCI 40
#WALLA WALLA U  N/A         48  37  65  SW3     30.29R
#WHITMAN MISSIONN/A         48  38  68  SW3     30.29R
$$

WAZ030-280910-
BLUE MOUNTAINS...WASHINGTON

CITY            SKY/WX      TMP DP  RH  WIND    PRES   REMARKS
#DIXIE 5SE      N/A         38  31  76  S9      30.16R
$$

ORZ009-041-WAZ024-280910-
COLUMBIA RIVER GORGE

CITY            SKY/WX      TMP DP  RH  WIND    PRES   REMARKS
HOOD RIVER AP   CLOUDY      45  39  79  W8      30.30S
THE DALLES AP   CLOUDY      49  39  68  NW9     30.29R
#ARLINGTON AIRPON/A         44  38  79  SW6     30.30R
#CELILO DOT     N/A         48  34  58  SW3     N/A
#LYLE           N/A         48  42  80  NW3     30.32R
#MOSIER 1S      N/A         43  34  70  CALM    30.27S
#MURDOCK        N/A         47  41  79  NW14    30.26R WCI 41
#RUFUS DOT      N/A         49  37  63  W21     N/A    WCI 42
#SMITHVILLE     N/A         47  41  79  N12     30.24R WCI 42

$$

ORZ510-280910-
NORTH CENTRAL OREGON

CITY            SKY/WX      TMP DP  RH  WIND    PRES   REMARKS
#ANTELOPE       N/A         36  31  82  CALM    30.18S
#CHENOWITH 1W   N/A         39  38  96  NW17    N/A    WCI 30
#COW CYN RST AREN/A         38  30  73  SW3     N/A
#DUFUR          N/A         37  35  92  CALM    30.25S
#DUFUR 9E       N/A         37  34  89  CALM    30.35R
#GRASS VALLEY 1SN/A         39  35  85  W1      30.36F
#KENT DOT       N/A         38  29  70  N8      N/A
#MAUPIN SCHOOL  N/A         47  35  63  W2      30.32R
#MORO SCHOOL    N/A         38  37  96  CALM    30.33R
#SHANIKO 5WSW   N/A         36  26  67  N6      N/A
#SHANIKO 4NW    N/A         36  29  75  W6      30.22S
#TYGH VALLEY 2NEN/A         46  36  68  N9      30.27S
#WAPANITIA AIRPON/A         41  34  76  W2      30.31S
#WASCO DOT      N/A         43  36  76  CALM    N/A
#WASCO 5NE      N/A         40  36  85  SW5     30.28S
$$

ORZ511-280910-
CENTRAL OREGON

CITY            SKY/WX      TMP DP  RH  WIND    PRES   REMARKS
BEND AIRPORT    MOCLDY      37  30  75  CALM    30.26R
MADRAS AIRPORT  PTCLDY      41  30  65  SW14    30.28F WCI 33
PRINEVILLE AP   MOCLDY      36  32  85  S3      30.25F
REDMOND AIRPORT MOCLDY      34  27  75  CALM    30.26R
#ASHWOOD SCHOOL N/A         37  31  79  CALM    30.22S
#BEND 1SW       N/A         36  31  82  SW1     N/A
#BEND-AWBREY    N/A         36  31  82  S1      30.31R
#BEND-KIM LN    N/A         35  31  85  CALM    30.25R
#CULVER         N/A         40  30  67  SW7     30.22F
#CULVER 8W      N/A         40  30  67  S2      30.24S
#POWELL BUTTE   N/A         37  30  75  S1      30.17F
#PRINEVILLE     N/A         36  31  82  CALM    30.40S
#PRINEVILLE 3N  N/A         36  33  89  SE1     30.30S
#WARM SPRINGS   N/A         41  35  79  CALM    30.23S

$$


ORZ509-280910-
EAST SLOPES OF OREGON CASCADES

CITY            SKY/WX      TMP DP  RH  WIND    PRES   REMARKS
SISTERS AWOS    N/A         39  28  64  CALM    30.21S
#BLUE BOX PASS  N/A         31  N/A N/A NW2     N/A
#CAMP SHERMAN   N/A         38  30  73  CALM    30.36S
#LA PINE 4SW    N/A         33  27  78  CALM    30.27S
#LA PINE 4NW    N/A         32  28  85  CALM    30.38S
#LAVA BUTTE DOT N/A         32  27  82  CALM    N/A
#SISTERS 3N     N/A         38  26  62  W3      30.35R
#SUNRIVER       N/A         35  30  82  CALM    30.34R
#TUMALO 3W      N/A         35  29  78  CALM    30.20R
#WANOGA BUTTE D N/A         27  24  88  W6      N/A

$$

ORZ044-280910-
LOWER COLUMBIA BASIN...OREGON

CITY            SKY/WX      TMP DP  RH  WIND    PRES   REMARKS
HERMISTON       CLOUDY      45  38  76  SW13    30.26R WCI 39
#BOARDMAN SCHOOLN/A         48  39  71  S13     30.27R WCI 43
#BOARDMAN 8SW   N/A         46  39  76  S12     30.28R WCI 40
#ECHO 8SW       N/A         46  37  71  W7      30.28R
#I-84 EX 198 DOTN/A         44  36  73  N12     N/A    WCI 38
#IONE SCHOOL    N/A         42  24  48  SW2     30.31R
#UMATILLA       N/A         48  37  65  S16     30.20R WCI 42
$$

ORZ507-280910-
NORTHERN FOOTHILLS OF THE BLUES

CITY            SKY/WX      TMP DP  RH  WIND    PRES   REMARKS
PENDLETON AIRPT CLOUDY      41  35  79  S6      30.27R
#ADAMS 3WNW     N/A         39  35  85  SW1     30.29R
#ATHENA         N/A         41  35  79  SW2     30.32R
#CAYUSE         N/A         45  36  70  W1      30.28R
#HELIX SCHOOL   N/A         41  36  82  N7      30.29R
#HELIX 3N       N/A         39  35  85  S7      30.22R
#HOLDMAN 5SE    N/A         42  37  82  SW7     30.25R
#HOLDMAN 6E     N/A         40  36  85  S9      30.09R
#M-F FERNDALE   N/A         48  34  58  CALM    30.24R
#M-F GROVE ELEM N/A         46  34  63  CALM    30.24S
#M-FREEWATER 5SEN/A         46  35  65  CALM    30.26S
#PENDLETON DNTN N/A         44  29  55  CALM    30.28R
#PDT AQUATIC CTRN/A         42  32  67  CALM    30.26S
#PDT SUNRIDGE   N/A         40  35  82  CALM    30.29R
#PENDLETON 7NW  N/A         43  35  73  SW7     25.80S
#PILOT ROCK 1S  N/A         40  32  73  E2      30.26S
#PILOT ROCK     N/A         38  34  85  S3      30.28R
#TUTUILLA       N/A         42  36  79  CALM    30.29S
#UMAPINE 2E     N/A         47  38  71  S5      30.24R
#WESTON SCHOOL  N/A         42  33  70  W6      30.28R

$$

ORZ508-280910-
SOUTHERN FOOTHILLS OF THE BLUES

CITY            SKY/WX      TMP DP  RH  WIND    PRES   REMARKS
LEXINGTON       CLOUDY      39  34  82  SE6     30.31R
#AJAX           N/A         40  28  62  CALM    30.39S
#CONDON SCHOOL  N/A         40  33  76  W9      30.18F
#CONDON 5W      N/A         36  29  75  SW7     30.20F
#HEPPNER EOC    N/A         39  33  79  SW3     30.23S
#HEPPNER 4NE    N/A         37  32  82  SW6     30.29S
#LEXINGTON 2SE  N/A         40  34  79  S3      30.26R
#MIKKALO        N/A         39  33  79  CALM    30.36R
#OLEX 4N        N/A         41  37  86  SW3     30.25R
#RUGGS 5NE      N/A         36  32  85  SW6     30.43R
#RUGGS 2SW      N/A         38  32  79  SW7     30.31S

$$

ORZ502-503-280910-
BLUE MOUNTAINS

CITY            SKY/WX      TMP DP  RH  WIND    PRES   REMARKS
MEACHAM         MOCLDY      33  30  89  CALM    30.23S
#BATTLE MTN DOT N/A         31  29  92  CALM    N/A
#GREENHORN 9SW  N/A         31  31  100 CALM    26.42R
#HARDMAN 10S    N/A         31  28  88  CALM    30.42S
#HEPPNER 15SE   N/A         32  28  85  CALM    30.23R
#LADD CYN SMT   N/A         34  33  96  N8      N/A
#LADD CREEK ODOTN/A         34  33  96  CALM    N/A
#LONG CREEK HS  N/A         34  33  96  CALM    N/A
#N POWDER DOT   N/A         32  30  92  W3      N/A
#PIKES PEAK     N/A         37  30  75  W21G29  27.99S WCI 26
#TOLLGATE       N/A         29  28  96  S3      30.03R
#TROY SCHOOL    N/A         41  37  86  CALM    30.13R
#UKIAH          N/A         30  29  96  CALM    30.22R
#WESTON 4E      N/A         36  32  85  S6      30.26S
$$

ORZ505-280910-
JOHN DAY BASIN

CITY            SKY/WX      TMP DP  RH  WIND    PRES   REMARKS
JOHN DAY        MOCLDY      36  30  79  CALM    30.26R
#JOHN DAY KJDY  N/A         34  N/A N/A CALM    30.04R
#ANTELOPE 9ESE  N/A         39  34  82  CALM    N/A
#DAYVILLE SCHOOLN/A         36  29  75  SW1     30.22R
#MITCHELL       N/A         36  32  85  SE1     30.40S
#MITCHELL 8NW   N/A         38  28  67  W1      30.23S
#MONUMENT HS    N/A         38  33  82  CALM    30.22R
#MT. VERNON 5SE N/A         35  29  78  CALM    30.20R
#SPRAY SCHOOL   N/A         38  N/A N/A CALM    N/A
#WINLOCK        N/A         34  30  85  CALM    30.20S
$$

ORZ506-280910-
OCHOCO AND JOHN DAY HIGHLANDS

CITY            SKY/WX      TMP DP  RH  WIND    PRES   REMARKS
#HORSE RIDGE DO N/A         34  26  72  W6      N/A
#PAULINA SCHOOL N/A         33  28  82  CALM    N/A
#PINE MTN OBS   N/A         27  24  88  SW1     N/A
#PRAIRIE CITY   N/A         32  28  85  CALM    30.40R
#SENECA 9NW     N/A         28  27  96  CALM    30.31R
$$

ORZ049-280910-
GRANDE RONDE VALLEY

CITY            SKY/WX      TMP DP  RH  WIND    PRES   REMARKS
LA GRANDE       CLOUDY      37  34  89  SE5     30.25R
#COVE           N/A         38  37  96  CALM    30.27R
#COVE SCHOOL    N/A         38  36  92  CALM    30.25R
#COVE 6NW       N/A         37  35  92  CALM    30.31R
#ELGIN 3N       N/A         37  32  82  CALM    30.21R
#ELGIN 1E       N/A         39  35  85  CALM    N/A
#IMBLER SCHOOL  N/A         37  35  92  CALM    30.20R
#ISLAND CITY 4N N/A         44  43  96  CALM    30.35R
#UNION 1S       N/A         38  36  92  CALM    30.31R
$$

ORZ050-280910-
WALLOWA COUNTY

CITY            SKY/WX      TMP DP  RH  WIND    PRES   REMARKS
JOSEPH AIRPORT  MOCLDY      32  30  92  S3      30.24R
#IMNAHA SCHOOL  N/A         41  35  79  NE1     30.25R
#JOSEPH 3N      N/A         31  25  78  S2      30.23R
#JOSEPH 3W      N/A         30  28  92  CALM    30.03R
#LOSTINE        N/A         34  31  89  CALM    30.09R
#LOSTINE 3SE    N/A         34  31  89  W1      30.28R
#MT HOWARD 8000 N/A         18  16  92  NW1     30.09S
#PROMISE 1S     N/A         36  31  82  E5      30.37R
#WALLOWA SCHOOL N/A         35  33  92  CALM    30.20R



$$



USA.gov is the U.S. government's official web portal to all federal, state and local government web resources and services.